AirNav   Duncan Aviation - Near you to keep you flying
 
 1107 users online  

3H5 Erie Air Park Ultralight Flightpark
Erie, Illinois, USA

GOING TO ERIE?


FAA INFORMATION EFFECTIVE 09 SEPTEMBER 2021

Location

FAA Identifier: 3H5
Lat/Long: 41-40-56.7000N 090-04-43.0000W
41-40.945000N 090-04.716667W
41.6824167,-90.0786111
(estimated)
Elevation: 600 ft. / 183 m (estimated)
Variation: 01E (1985)
From city: 1 mile N of ERIE, IL
Time zone: UTC -5 (UTC -6 during Standard Time)
Zip code: 61250

Ultralight Flight Park Operations

Ultralight Flight Park use: Open to the public
Activation date: 07/1972
Control tower: no
ARTCC: CHICAGO CENTER
FSS: KANKAKEE FLIGHT SERVICE STATION
NOTAMs facility: IKK (NOTAM-D service available)
Attendance: MON-FRI SR-SS
Wind indicator: yes
Segmented circle: no

Ultralight Flight Park Communications

CTAF: 122.9
WX AWOS-3PT at CWI (14 nm NW): 125.525 (563-243-8934)
WX AWOS-3PT at SQI (18 nm E): 119.175 (815-626-2704)

Nearby radio navigation aids

VOR radial/distance  VOR name  Freq  Var
CVAr091/18.2DAVENPORT VORTAC113.8004E
PLLr233/30.1POLO VOR/DME111.2003E
MZVr044/33.2MOLINE VOR/DME114.4005E
BDFr325/38.4BRADFORD VORTAC114.7000E

 
NDB name  Hdg/Dist  Freq  Var  ID
HILLZ107/14.651700EFN ..-. -.

Ultralight Flight Park Services

Parking: tiedowns
Airframe service: NONE
Powerplant service: NONE

Runway Information

Runway 18U/36U

Dimensions: 2000 x 200 ft. / 610 x 61 m
Surface: turf, in good condition
Runway edge markings: RY 18U/36U THLDS MKD WITH L-SHAPED WHITE GRAVEL.
RUNWAY 18U  RUNWAY 36U
Latitude: 41-41.110333N41-40.781000N
Longitude: 090-04.717167W090-04.715667W
Traffic pattern: leftleft
Obstructions: 58 ft. trees, 710 ft. from runway, 70 ft. right of centerline, 12:1 slope to clear47 ft. trees, 650 ft. from runway, 100 ft. right of centerline, 14:1 slope to clear

Ultralight Flight Park Ownership and Management from official FAA records

Ownership: Privately-owned
Owner: JAMES E. ROBINSON
8689 STAR RD
ERIE, IL 61250
Phone (309) 230-0944
Manager: JAMES E ROBINSON
8689 STAR RD
ERIE, IL 61250
Phone (309) 230-0944

Ultralight Flight Park Operational Statistics

Aircraft based on the field: 27
Single engine airplanes: 27
    
Aircraft operations: avg 115/week *
83% local general aviation
17% transient general aviation
* for 12-month period ending 31 August 2019

Additional Remarks

RC MODEL ACFT ACTIVITY WEST OF RY 36 WED EVES, WX PERMITTING.
FOR CD CTC CHICAGO ARTCC AT 630-906-8921.

Instrument Procedures

There are no published instrument procedures at 3H5.

Some nearby airports with instrument procedures:

KCWI - Clinton Municipal Airport (14 nm NW)
KSQI - Whiteside County Airport/Jos H Bittorf Field (18 nm E)
KSFY - Tri-Township Airport (22 nm N)
KDVN - Davenport Municipal Airport (23 nm W)
KMLI - Quad Cities International Airport (24 nm SW)
 
Loc | Ops | Rwys | IFR | FBO | Links
Com | Nav | Svcs | Stats | Notes
Area around 3H5 (Erie Air Park Ultralight Flightpark)
 
Road maps at: MapQuest Bing Google
 
Aerial photo
WARNING: Photo may not be current or correct
Aerial photo of 3H5 (Erie Air Park Ultralight Flightpark)
Do you have a better or more recent aerial photo of Erie Air Park Ultralight Flightpark that you would like to share? If so, please send us your photo.

 
Sectional chart

 
Airport distance calculator
Flying to Erie Air Park Ultralight Flightpark? Find the distance to fly.

From to 3H5

Sunrise and sunset
Times for 18-Sep-2021
 Local
(UTC-5)
 Zulu
(UTC)
Morning civil twilight06:1711:17
Sunrise06:4511:45
Sunset19:0400:04
Evening civil twilight19:3200:32

Current date and time
Zulu (UTC)  18-Sep-2021 15:15:34
Local (UTC-5)  18-Sep-2021 10:15:34
 
METAR
KCWI 
13nm NW 
181456Z AUTO 08009KT 10SM CLR 21/13 A3022 RMK AO2 SLP233 T02060133 50002
KSQI 
19nm E 
181456Z 07008KT 10SM CLR 22/13 A3021 RMK AO2 SLP094 T02220128 50003
KSFY 
22nm N 
181455Z AUTO 09007KT 10SM CLR 21/12 A3022 RMK AO2
KDVN 
23nm W 
181452Z AUTO 07008KT 10SM CLR 21/12 A3023 RMK AO2 SLP228 T02110122 50003
KMLI 
24nm SW 
181452Z 08007KT 10SM CLR 21/13 A3020 RMK AO2 SLP223 T02110133 51004
TAF
KMLI 
24nm SW 
181132Z 1812/1912 06006KT P6SM SKC FM181500 08006KT P6SM SKC FM190400 11004KT P6SM SCT250
NOTAMs
Click for the latest NOTAMs
NOTAMs are issued by the DoD/FAA and will open in a separate window not controlled by AirNav.

 

 
 

Would you like to see your business listed on this page?

 If your business provides an interesting product or service to pilots, flight crews, aircraft, or users of the Erie Air Park Ultralight Flightpark, you should consider listing it here.  To start the listing process, click on the button below
 
Add a business
 

Other Pages about Erie Air Park Ultralight Flightpark

www.erieairpark.com
 
Update a link
 
Copyright © AirNav, LLC. All rights reserved. Privacy Policy  Contact